User: anonymous
Location: Unspecified
(0.0000°N, 0.0000°E)
Time: 23:42:28
(UTC+02:00)
Language:

ARIANE 5 R/B - Orbit

View from above orbital plane
View from above orbital plane
View from above satellite
View from above satellite

Ground track
Ground track

The orbit data is extracted from the following two-line orbital elements,

1 28787U 05028B   14200.47072221  .00000045  00000-0  76497-3 0  4999
2 28787 006.8964 083.3326 7156410 120.0711 094.2324 02.26535102 73996
Epoch (UTC): 19 July 2014 11:17:50
Eccentricity: 0.7156410
inclination: 6.8964°
perigee height: 585 km
apogee height: 35636 km
right ascension of ascending node: 83.3326°
argument of perigee: 120.0711°
revolutions per day: 2.26535102
mean anomaly at epoch: 94.2324°
orbit number at epoch: 7399

The dashed part of the orbit path shows where the satellite is in the earth's shadow,  

DLR